Вернуться в каталог

STARLINK-37468

АктивенСвязьSSO
NORAD 68857·PAYLOAD·🇺🇸 United States

Запущен Apr 26, 2026 с Vandenberg Space Force Base

Loading…

Ближайшие Пролёты (ближайшие 24 часа)

TLE

СвежийSource: CelesTrak SupGP

Эпоха: Sep 15, 2026, 03:13 UTC

1 68857C 26094U   26258.13451389 -.00064032  00000+0 -19880-2 0  2584
2 68857  97.2834 271.3764 0001582  88.9926  69.7622 15.33466204    14

Отслеживайте STARLINK-37468 в реальном времени с AllMySat

Download on the App Store